Arar current weather conditions

sailwx.info

Wind from 060 at 3 knots

Air temperature 11.0° C
Dewpoint -0.0° C

Last reported at 2015-Mar-06 20:00 UTC.
Time now 2015-Mar-06 21:40 UTC

Location: N 30°54' E 041°08'.
View on Google Maps.

See reports from other nearby stations

  
Tides and Currents Weather Stations Pressure Air Temp Water Temp Dewpoint Dewpoint Depression Visibility Wind Speed Wind Dir Waves Ship Positions
date/time (UTC)wind fromknots sea level pressurealtimeterstation pressurevisibilityair tempwater tempwave heightnotes
2015-Mar-06 20:00 060 3 11.0
2015-Mar-06 19:00 120 3 13.0
2015-Mar-06 18:00 140 3 14.0
2015-Mar-06 17:00 100 7 14.0
2015-Mar-06 16:00 100 7 16.0
2015-Mar-06 15:00 070 9 19.0
2015-Mar-06 14:00 090 6 20.0
2015-Mar-06 13:00 060 5 20.0
2015-Mar-06 12:00 070 11 20.0
2015-Mar-06 11:00 120 10 20.0
2015-Mar-06 10:00 100 10 19.0
2015-Mar-06 09:00 100 10 18.0
2015-Mar-06 08:00 080 10 16.0
2015-Mar-06 07:00 080 10 14.0
2015-Mar-06 06:00 060 10 11.0
2015-Mar-06 05:00 040 8 9.0
2015-Mar-06 04:00 030 10 7.0
2015-Mar-06 03:00 030 8 6.0
2015-Mar-06 02:00 030 7 7.0
2015-Mar-06 01:00 040 7 8.0
2015-Mar-06 00:00 050 7 8.0
2015-Mar-05 23:00 050 10 9.0
2015-Mar-05 22:00 050 8 10.0
2015-Mar-05 21:00 060 8 12.0
2015-Mar-05 20:00 050 9 13.0
2015-Mar-05 19:00 070 7 14.0
2015-Mar-05 18:00 060 7 15.0
2015-Mar-05 17:00 060 6 16.0
2015-Mar-05 16:00 060 7 18.0
2015-Mar-05 15:00 050 6 20.0
2015-Mar-05 14:00 080 8 5.422.0
2015-Mar-05 13:00 070 5 5.423.0
2015-Mar-05 12:00 110 5 5.423.0
2015-Mar-05 11:00 010 4 5.422.0
2015-Mar-05 10:00 080 2 22.0
2015-Mar-05 09:00 080 8 20.0
2015-Mar-05 08:00 060 10 19.0
2015-Mar-05 07:00 040 12 17.0
2015-Mar-05 06:00 020 10 14.0
2015-Mar-05 05:00 320 6 11.0
2015-Mar-05 04:00 280 6 8.0
2015-Mar-05 03:00 290 8 8.0
2015-Mar-05 02:00 270 7 9.0
2015-Mar-05 01:00 270 6 9.0
2015-Mar-05 00:00 270 7 10.0
2015-Mar-04 23:00 300 7 10.0
2015-Mar-04 22:00 270 6 11.0
2015-Mar-04 21:00 280 5 12.0